Location: Bletchingley
(51.2333°N, 0.1000°W)
Time: 12:29:16
(UTC+00:00)

Cosmos 1833 Rocket - Pass Details

Date: 18 September 2020
Orbit: 831 x 841 km, 71.0° (Epoch: 21 October)

Event Time Altitude Azimuth Distance (km) Brightness Sun altitude
Rises 21:42:03 0° 328° (NNW) 3,408 7.0 -30.4°
Reaches altitude 10° 21:44:31 10° 325° (NW) 2,470 6.0 -30.6°
Enters shadow 21:49:22 57° 282° (WNW) 993 3.1 -31.1°
